Tracking 19717 objects as of 24-Jun-2019
HD Live streaming from Space Station
objects crossing your sky now

FENGYUN 1C DEB

Track FENGYUN 1C DEB now!
10-day predictions


NORAD ID: 31756
Int'l Code: 1999-025CFF
Perigee: 777.3 km
Apogee: 867.9 km
Inclination: 99.3 °
Period: 101.2 minutes
Semi major axis: 7193 km
RCS: 0.0132 m2 (small)
Launch date: May 10, 1999
Source: People's Republic of China (PRC)
Launch site: Taiyaun Space Center, China (TSC)

Note: This is SATELLITE DEBRIS
aabbcc
Your satellite tracking list
Your tracking list is empty




NASA's NSSDC Master Catalog

Two Line Element Set (TLE):
1 31756U 99025CFF 19174.62159087  .00000653  00000-0  30578-3 0  9997
2 31756  99.3483 102.1166 0062995  93.7288 267.1095 14.22926928627173
Source of the keplerian elements: AFSPC